Whiteman AFB, MO

3:15 PM CST on November 16, 2019 (GMT -0600)
Whiteman Air Force Base

Weather History for KSZL - May, 2019

Change the Weather History Date:

Thursday, May 2, 2019

  Actual Average Record
Temperature  
Mean Temperature 57 °F -  
Max Temperature 61 °F 70 °F 85 °F (2018)
Min Temperature 52 °F 50 °F 32 °F (2013)
Degree Days  
Heating Degree Days 8    
Growing Degree Days 7 (Base 50)    
Moisture  
Dew Point 56 °F    
Average Humidity 97    
Maximum Humidity 100    
Minimum Humidity 79    
Precipitation  
Precipitation 0.34 in - - ()
Sea Level Pressure  
Sea Level Pressure 30.01 in    
Wind  
Wind Speed 9 mph (North)    
Max Wind Speed 15 mph    
Max Gust Speed 22 mph    
Visibility 9 miles    
Events Rain , Thunderstorm    
Averages and records for this station are not official NWS values.
T = Trace of Precipitation, MM = Missing Value Source: NWS Daily Summary

Daily Weather History Graph

Daily Weather History Graph

Search for Another Location

Airport or City:

Astronomy

May. 02, 2019 Rise Set
Actual Time 6:15 AM CDT 8:07 PM CDT
Civil Twilight 5:47 AM CDT 8:36 PM CDT
Nautical Twilight 5:12 AM CDT 9:11 PM CDT
Astronomical Twilight 4:34 AM CDT 9:48 PM CDT
Moon 5:26 AM CDT (5/2) 5:57 PM CDT (5/2)
Length of Visible Light 14h 49m
Length of Day
13h 51m
Waning Crescent, 5% of the Moon is Illuminated
May 2
Waning Crescent
May 4
New
May 11
First Quarter
May 18
Full
May 26
Last Quarter

Hourly Weather History & Observations

Time (CDT) Temp. Dew Point Humidity Pressure Visibility Wind Dir Wind Speed Gust Speed Precip Events Conditions
12:26 AM 62.6 °F 62.6 °F 100% 29.91 in 10.0 mi NE 5.8 mph - N/A   Overcast
12:43 AM 62.6 °F 62.6 °F 100% 29.93 in 10.0 mi North 6.9 mph - N/A   Overcast
12:59 AM 61.7 °F 61.7 °F 100% 29.93 in 10.0 mi North 3.5 mph - 0.00 in   Overcast
1:21 AM 60.8 °F 60.8 °F 100% 29.93 in 10.0 mi NNW 9.2 mph - N/A Rain Light Rain
1:40 AM 60.8 °F 60.8 °F 100% 29.94 in 10.0 mi NW 10.4 mph - N/A Rain , Thunderstorm Light Rain
1:58 AM 61.0 °F 61.0 °F 100% 29.95 in 10.0 mi NNW 6.9 mph - 0.01 in   Overcast
2:58 AM 60.1 °F 60.1 °F 100% 29.94 in 10.0 mi NNW 8.1 mph - N/A   Overcast
3:36 AM 59.0 °F 59.0 °F 100% 29.96 in 6.0 mi NW 10.4 mph - N/A Rain Light Rain
3:57 AM 58.6 °F 58.6 °F 100% 29.96 in 10.0 mi NNW 11.5 mph - 0.01 in   Light Drizzle
4:22 AM 57.2 °F 57.2 °F 100% 29.96 in 10.0 mi North 11.5 mph - N/A   Overcast
4:36 AM 57.2 °F 57.2 °F 100% 29.97 in 10.0 mi North 11.5 mph - N/A   Overcast
4:58 AM 57.2 °F 57.2 °F 100% 29.98 in 10.0 mi North 10.4 mph - 0.00 in   Overcast
5:45 AM 55.4 °F 55.4 °F 100% 30.00 in 10.0 mi NNW 9.2 mph - N/A Rain Light Rain
5:58 AM 55.6 °F 55.6 °F 100% 30.01 in 10.0 mi NNW 8.1 mph - 0.00 in Rain Light Rain
6:40 AM 55.4 °F 55.4 °F 100% 30.07 in 3.0 mi NW 15.0 mph 21.9 mph N/A Rain Light Rain
6:58 AM 53.8 °F 53.8 °F 100% 30.09 in 3.0 mi NNW 13.8 mph - 0.02 in Rain Light Rain
7:57 AM 52.9 °F 52.9 °F 100% 30.04 in 6.0 mi North 8.1 mph - 0.29 in Rain Light Rain
8:33 AM 55.4 °F 55.4 °F 100% 30.02 in 10.0 mi NE 9.2 mph - N/A   Mostly Cloudy
8:56 AM 54.5 °F 54.5 °F 100% 30.01 in 10.0 mi NNE 12.7 mph - 0.01 in   Mostly Cloudy
9:26 AM 55.4 °F 55.4 °F 100% 30.04 in 10.0 mi North 11.5 mph - N/A   Overcast
9:57 AM 54.5 °F 54.5 °F 100% 30.06 in 10.0 mi North 12.7 mph - N/A   Overcast
10:57 AM 53.8 °F 53.8 °F 100% 30.10 in 10.0 mi North 13.8 mph 18.4 mph N/A   Overcast
11:56 AM 53.2 °F 53.2 °F 100% 30.10 in 10.0 mi North 15.0 mph - N/A   Overcast
12:59 PM 54.0 °F 54.0 °F 100% 30.08 in 10.0 mi North 10.4 mph - N/A   Overcast
1:56 PM 58.5 °F 56.5 °F 93% 30.07 in 10.0 mi NNE 11.5 mph - N/A   Overcast
2:55 PM 58.6 °F 55.9 °F 91% 30.08 in 10.0 mi NNE 9.2 mph - N/A   Overcast
3:55 PM 58.6 °F 55.4 °F 89% 30.06 in 10.0 mi NNE 10.4 mph - N/A   Overcast
4:56 PM 59.4 °F 54.5 °F 84% 30.05 in 10.0 mi NNE 9.2 mph - N/A   Overcast
5:56 PM 58.8 °F 54.3 °F 85% 30.03 in 10.0 mi North 10.4 mph - N/A   Overcast
6:56 PM 59.5 °F 53.1 °F 79% 30.03 in 10.0 mi NNE 9.2 mph - N/A   Mostly Cloudy
7:56 PM 58.5 °F 53.2 °F 83% 30.03 in 10.0 mi NNE 5.8 mph - N/A   Mostly Cloudy
8:57 PM 53.8 °F 53.8 °F 100% 30.04 in 10.0 mi Calm Calm - N/A   Mostly Cloudy
9:56 PM 55.6 °F 55.6 °F 100% 30.05 in 10.0 mi NE 3.5 mph - N/A   Overcast
10:55 PM 55.4 °F 55.4 °F 100% 30.04 in 10.0 mi Calm Calm - N/A   Overcast
11:56 PM 56.1 °F 55.8 °F 99% 30.05 in 10.0 mi North 4.6 mph - N/A   Overcast